SL-12 DEB, 41806

Orbit data source: Space-Track

SL-12 DEB, 41806 is space debris in HEO originally from a launch on Mon, 25 Dec 2006 UTC launched from the Tyuratam Missile And Space Complex (TTMTR). Debris objects in space refer to the collection of defunct objects orbiting the Earth. Examples of debris include non-operational satellites, rocket bodies, and fragments generated from explosions, collisions, or faulty payload assembly.

Loading next visibility...
Identifier
41806, 2006-062L
Orbit
HEO
Country
Flag of CISCIS
Related business
Manufacturer
RKKE
Mission
Spacecraft
Bus & Motor
Unknown
Mass
Unknown
Launch date (UTC)
2006-12-25 (19 years ago)
Launch vehicle
Unknown
Launch site
Tyuratam Missile And Space Complex (TTMTR)
Object type
Payload
Rocket body
Debris
Shape & HBR
Unknown shape, 0.2 m
Radar Cross Section
Medium (>0.1 m² and <1 m²)

Expand to show TLE details & history
Last TLE update: 2 days ago

TLE from 2 days ago
0 SL-12 DEB
1 41806U 06062L   26032.30887941  .00000103  00000-0  78200-3 0  9990
2 41806  64.4156  78.9355 5662533 319.7345   9.8133  4.14254391143461
Epoch: 2026-02-01T07:24Z
TLE epoch observation values (Epoch: 2026-02-01T07:24:47.181Z)
Latitude
0.00003°
Longitude
-163.76805°
Altitude
1,402.982 km
Speed
8.839 km/s
True Right ascension
05h 15m 47s
True Declination
0° 00' 00"
Sunlit
Object was in daylight at epoch
Visualization orbit readout
Latitude
Unknown
Longitude
Unknown
Altitude
Unknown
Speed
Unknown
Apparent Right ascension
Unknown
Apparent Declination
Unknown
Sunlit
N/A
Visualization observer readout
Local Sidereal Time
17:29:25
Azimuth
Unknown
Elevation
Unknown
Doppler factor
Unknown
Orbital elements
Apogee altitude
19,270.127 km
Perigee altitude
724.705 km
Semi-major axis
16,375.553 km
Eccentricity
0.56625
Inclination
64.4156°
RAAN
78.9355°
Arg. of periapsis
319.7345°
True anomaly
40.42514°
Mean anomaly
9.8133°
Eccentric anomaly
21.93052°
Mean motion
1.03574 °/min
Orbital period
347.58 mins
BSTAR
0.000782
Loading maneuver chart data...
Computing Atmospheric mass density...
Loading historical data...
Loading historical data...
Loading historical data...
Loading historical data...
Loading historical data...
Loading historical data...
Loading historical data...

Documentation

Showing up to 5 results
|